Location: Oakley
(37.9974°N, 121.7125°W)
Time: 02:54:58
(UTC+00:00)

Hubble Space Telescope - Pass Details

Date: 24 April 2026
Orbit: 473 x 476 km, 28.5° (Epoch: 11 May)

Event Time Altitude Azimuth Distance (km) Brightness Sun altitude
Rises 03:49:24 0° 220° (SW) 2,504 4.4 -11.6°
Reaches altitude 10° 03:52:44 10° 189° (S) 1,629 3.0 -12.2°
Maximum altitude 03:54:15 12° 165° (SSE) 1,506 2.7 -12.4°
Enters shadow 03:54:28 12° 161° (SSE) 1,508 2.6 -12.5°
